Location: Newark
(45.9456°N, 15.4064°E)
Time: 06:04:22
(UTC+00:00)

SR - Pass Details

Date: 26 January 2020
Orbit: 575 x 881 km, 66.7° (Epoch: 19 February)

Event Time Altitude Azimuth Distance (km) Brightness Sun altitude
Rises 00:04:42 0° 284° (WNW) 3,477 - -60.7°
Reaches altitude 10° 00:08:52 10° 312° (NW) 2,543 - -60.4°
Maximum altitude 00:11:26 13° 338° (NNW) 2,336 - -60.2°
Drops below altitude 10° 00:14:00 10° 4° (N) 2,521 - -60.0°
Sets 00:18:05 0° 32° (NNE) 3,419 - -59.6°
